RH
64 29 30 74 90 87 81 77 75 79 81 85 86 88 87 91 91 80 62 40 37 40 88 85 81 73 60 59 73 72 69 62 57 47 39 21 18 26 34 61 50 40 85
43 27 35 83 94 89 87 73 83 85 92 94 97 92 89 88 76 55 42 58 32 72 87 71 53 52 38 42 53 55 58 52 40 47 43 34 32 37 36 42 32 35 74
58 41 44 77 88 79 70 83 87 86 97 98 98 95 80 70 41 29 83 69 50 82 90 88 78 65 41 44 55 46 40 34 60 79 83 85 68 61 60 51 41 34 32
77 61 53 63 70 64 68 83 84 91 93 96 72 57 60 39 20 78 90 89 70 90 92 88 77 56 25 27 29 26 31 43 80 84 90 91 86 86 83 84 71 69 64
86 81 62 57 71 78 78 77 83 87 88 74 50 36 19 15 22 88 89 88 90 95 91 79 79 32 22 28 37 46 50 73 89 90 77 86 83 80 77 78 89 88 82
84 92 83 75 78 82 80 80 83 88 96 60 50 20 14 14 17 35 76 84 86 93 90 85 43 26 30 42 50 53 63 79 88 89 92 88 58 68 78 86 88 90 94
79 86 80 78 81 84 82 70 85 92 96 80 57 22 16 15 14 16 34 69 80 77 73 38 26 35 38 45 48 50 59 78 82 88 86 85 52 50 67 78 83 92 96
72 79 76 80 88 95 80 80 85 94 97 98 62 27 18 17 16 17 29 44 70 60 35 27 35 41 44 46 46 48 56 85 88 82 82 72 56 87 78 70 55 40 58
75 81 60 57 95 98 83 85 92 95 97 98 70 41 20 20 19 24 33 39 39 29 27 34 41 45 45 43 44 47 55 84 85 78 78 74 79 93 78 72 58 41 44
77 81 73 54 87 92 85 79 71 75 76 98 78 57 29 24 24 22 24 26 25 28 34 39 44 44 42 43 44 45 48 64 62 53 62 61 85 97 76 65 50 28 26
79 79 80 85 72 60 43 41 41 44 51 53 95 80 36 26 26 29 28 30 30 33 34 42 45 45 44 45 46 48 49 57 60 66 71 68 84 92 74 50 37 22 20
84 80 79 85 86 86 80 57 41 31 36 50 93 94 42 36 43 33 30 34 37 35 36 44 47 44 45 48 49 52 53 54 53 70 70 71 57 56 52 43 27 20 21
80 80 76 76 80 81 82 80 54 35 34 54 85 98 62 76 91 80 59 47 36 39 37 42 51 47 49 44 45 53 57 48 52 64 59 62 47 53 45 25 20 20 21
63 80 80 79 79 80 83 81 74 71 74 90 83 76 76 81 84 86 75 52 38 35 41 47 52 56 50 55 54 58 54 45 49 62 65 67 54 41 44 23 19 19 20
82 68 78 82 85 83 85 84 83 83 85 82 84 89 91 87 83 86 86 84 74 54 63 68 75 74 66 58 59 54 52 52 48 58 62 69 55 42 40 24 21 19 20
81 87 77 72 77 80 86 88 86 81 83 86 84 79 80 83 80 79 88 86 90 85 88 87 92 86 77 57 57 54 55 54 54 58 62 57 54 36 28 25 23 21 21
70 75 82 65 60 61 76 79 90 90 87 88 86 90 86 78 80 81 81 85 84 83 87 87 86 85 74 59 52 52 55 56 57 61 54 56 44 35 24 24 24 22 20
54 56 66 72 76 70 59 64 72 87 88 92 93 92 91 87 80 78 82 85 86 86 74 93 88 85 79 65 54 49 53 58 60 56 60 54 47 40 29 22 23 24 20
35 41 44 52 74 83 84 86 71 62 67 78 83 93 95 94 92 87 79 79 77 86 86 91 93 90 80 69 58 55 57 59 64 63 58 54 48 38 30 30 23 23 20
26 30 34 37 41 61 70 85 84 78 71 62 60 79 98 96 89 88 92 85 86 88 92 94 92 89 84 72 62 60 59 60 66 69 62 56 49 42 34 31 27 23 21
31 32 32 32 33 35 37 55 67 78 70 65 59 47 81 95 96 88 67 77 86 89 88 91 90 88 84 77 68 65 58 61 68 74 71 63 50 41 39 33 29 25 21
29 31 34 34 35 36 36 36 45 56 68 68 70 61 46 57 87 100 92 68 67 81 92 93 89 87 90 82 70 66 58 60 71 75 72 69 58 48 40 34 30 26 24
34 31 32 34 34 36 38 39 37 39 49 79 81 62 42 40 65 86 97 100 85 69 84 94 92 91 89 86 75 65 69 71 66 65 69 69 58 51 44 39 33 29 27
44 36 32 29 28 27 30 38 41 40 39 46 80 84 71 67 61 56 73 90 98 100 94 74 85 85 98 91 83 75 72 68 66 63 61 60 57 53 49 43 41 35 31
46 38 35 36 40 39 32 29 29 30 34 40 54 72 86 89 87 73 73 76 94 99 99 100 85 100 82 88 80 77 74 76 64 62 57 55 52 49 48 45 44 48 34
60 50 45 41 40 48 46 42 40 38 34 35 41 54 66 80 85 86 84 83 98 98 98 98 98 99 100 98 94 90 84 81 81 65 62 62 58 56 51 52 49 48 42
Wind_Speed
11 17 16 18 17 15 12 10 9 9 7 4 2 5 3 1 2 3 4 5 8 14 13 10 6 6 6 3 3 3 4 5 8 10 11 11 12 12 10 9 9 9 12
13 18 18 18 17 15 13 11 10 10 8 6 4 3 3 1 1 2 7 9 13 15 12 9 12 9 7 4 4 3 5 7 10 13 15 15 13 14 12 10 11 10 9
15 20 20 19 17 14 13 14 11 9 8 6 4 3 4 3 4 9 10 10 12 12 11 9 8 9 8 8 7 7 8 11 18 20 17 14 12 12 12 13 13 13 9
13 20 18 18 17 14 14 13 11 9 5 2 1 5 5 6 9 15 12 10 10 9 10 7 6 9 9 9 10 12 13 15 18 15 13 7 9 12 11 10 10 10 9
11 16 18 18 18 15 14 12 10 8 4 3 5 6 7 9 12 14 12 10 11 11 8 5 5 7 9 11 12 12 14 16 16 11 3 5 5 8 8 9 8 7 8
12 16 15 18 17 14 13 10 8 6 7 7 5 6 7 8 10 12 10 9 8 9 7 2 3 6 9 10 11 12 13 15 16 9 7 7 6 7 5 11 11 11 9
17 15 12 17 17 14 12 9 7 8 7 5 4 6 6 7 7 9 10 9 8 7 4 3 5 7 7 8 8 10 11 13 14 8 2 3 5 2 2 2 1 5 6
14 13 13 15 17 13 12 11 10 9 6 5 4 5 6 6 6 8 8 8 8 5 4 5 6 6 6 6 6 8 11 13 10 2 2 3 4 2 2 2 3 4 4
10 10 11 17 16 14 13 14 12 9 8 6 7 7 7 7 7 7 8 8 7 5 6 6 5 4 4 5 5 6 9 11 6 2 2 3 3 1 2 4 6 4 3
12 9 6 14 16 17 14 14 14 12 10 8 6 9 8 9 9 9 8 7 7 7 7 6 5 4 3 4 4 5 7 6 2 4 3 2 3 4 4 6 9 4 3
14 10 5 6 7 8 11 12 12 12 13 11 9 7 8 7 7 9 10 9 8 8 8 6 5 4 3 3 3 4 5 4 1 3 5 3 5 6 8 9 8 7 4
13 13 7 11 8 9 6 7 10 11 12 13 13 11 8 8 6 9 8 8 9 9 8 7 6 5 4 4 3 3 3 2 4 6 8 7 9 10 7 7 7 5 3
21 17 14 13 11 11 13 10 10 10 11 11 13 14 8 6 11 11 9 10 11 10 10 8 8 7 6 5 5 6 5 5 4 10 9 8 9 8 7 7 6 3 1
17 22 18 15 15 14 14 13 7 7 7 12 9 7 8 11 15 17 14 11 14 13 13 11 9 10 11 10 9 8 8 7 8 11 11 11 11 8 9 7 5 3 2
12 17 23 22 18 18 16 13 14 13 14 14 14 11 9 14 19 18 16 13 12 13 10 9 9 10 12 12 12 11 11 8 9 14 13 13 12 12 11 8 6 5 4
13 13 13 21 22 24 23 19 13 16 17 17 18 20 23 23 22 21 18 18 19 14 14 11 17 17 18 15 15 14 13 10 10 15 16 15 13 14 12 9 8 7 6
12 12 15 16 16 20 25 24 24 20 17 17 17 20 20 24 23 22 22 24 25 21 20 19 22 19 19 18 18 17 16 14 14 16 18 18 14 12 13 11 10 9 8
15 12 15 16 16 17 19 21 25 27 24 21 17 18 21 20 25 26 26 25 27 26 24 24 23 24 23 23 21 20 19 18 17 17 18 20 17 15 14 14 13 12 11
17 18 17 17 14 17 14 17 22 21 24 26 23 19 22 23 24 25 28 28 28 26 22 27 27 28 28 26 24 22 22 21 19 19 20 21 22 20 15 15 15 15 13
19 20 20 19 21 22 16 20 23 24 24 24 25 27 26 27 27 27 28 29 29 27 25 28 31 31 30 26 25 22 25 23 22 21 22 22 23 24 21 19 16 15 16
16 16 17 20 21 19 23 24 23 29 30 30 30 27 26 26 29 30 30 32 31 32 34 34 34 33 31 27 24 25 26 26 25 25 24 24 25 25 25 24 20 18 19
22 18 17 20 22 23 25 27 28 24 30 33 35 35 32 31 30 32 34 35 35 35 36 36 38 37 33 31 31 27 24 28 30 30 29 27 28 27 26 26 25 22 21
12 19 23 25 26 27 28 29 31 33 27 24 30 36 36 34 37 33 34 36 37 36 37 39 39 40 38 34 36 29 13 17 18 25 31 31 30 31 29 26 27 24 24
7 6 9 11 15 20 26 31 32 33 34 31 25 27 29 29 31 32 32 39 37 37 37 38 40 42 41 40 38 40 36 19 14 12 20 26 31 32 31 29 28 27 26
4 3 4 5 5 9 9 12 19 25 30 31 28 25 28 29 31 33 32 27 36 37 38 38 38 42 45 45 44 43 42 38 27 28 21 23 27 30 32 31 29 29 29
8 7 7 6 7 8 12 12 12 14 17 21 25 23 26 26 26 28 30 30 26 35 38 40 40 40 44 46 48 46 45 44 46 36 30 27 25 28 32 32 31 31 30
Wind_Direction
197 174 163 143 148 147 146 140 135 133 122 134 184 210 200 275 351 350 19 63 108 114 103 102 94 68 55 91 114 81 63 47 36 37 35 41 54 62 75 70 65 92 96
175 167 163 145 151 154 153 143 140 128 128 146 157 204 162 129 45 54 95 85 119 120 118 102 91 73 61 65 122 96 65 56 57 53 54 50 59 65 71 65 68 84 103
180 163 162 153 157 154 151 148 151 138 143 137 144 147 137 116 100 110 93 100 121 117 124 115 85 53 49 67 102 92 85 86 79 62 45 29 50 63 68 70 73 77 88
178 160 160 158 163 159 158 159 157 147 156 162 41 89 113 115 116 117 98 113 130 123 130 115 66 36 52 79 89 90 92 96 93 85 78 72 42 56 55 57 74 75 76
174 157 160 154 156 157 160 166 162 161 189 164 100 97 105 117 129 132 132 119 116 117 128 115 54 52 81 89 90 90 95 97 87 77 113 72 33 62 48 56 77 67 65
144 182 163 154 156 156 158 162 162 156 153 134 100 100 110 122 140 152 146 139 141 134 146 130 64 87 99 97 94 94 98 96 92 69 63 52 35 72 64 78 77 81 93
170 188 192 162 164 168 174 163 164 157 170 137 121 114 115 123 136 148 159 155 154 146 147 121 104 104 102 96 95 94 103 93 81 81 70 23 8 68 90 86 106 110 132
183 199 200 182 166 174 179 158 162 174 179 166 149 139 127 124 130 144 147 153 161 158 141 123 115 107 103 99 102 103 110 101 101 191 272 4 42 58 41 12 297 274 271
181 221 190 175 164 167 179 168 176 183 182 182 172 163 154 150 142 146 148 154 158 156 144 132 120 102 97 99 104 106 114 116 132 139 283 2 100 249 345 343 329 335 308
165 218 206 186 177 184 186 183 194 195 207 204 213 186 174 169 161 158 163 168 169 167 160 150 140 127 116 110 107 110 124 135 120 108 234 319 177 223 301 316 324 337 336
164 208 242 184 191 191 195 201 205 209 207 212 203 211 182 186 187 179 178 175 185 188 186 170 162 156 151 140 132 128 140 122 74 217 267 279 214 246 297 311 321 339 7
172 181 208 178 215 202 223 205 211 213 211 204 207 222 187 200 195 211 198 204 205 205 204 190 192 194 192 182 177 173 178 158 175 236 258 268 254 266 281 304 311 327 359
166 178 187 187 206 191 199 230 226 211 207 216 212 213 228 175 239 255 244 227 228 227 227 219 214 214 219 222 199 216 220 213 193 238 259 270 260 265 283 303 307 306 324
187 173 180 198 203 205 216 222 226 230 216 229 240 235 204 187 225 248 252 237 232 233 235 232 234 232 227 221 233 222 239 223 192 246 263 270 268 262 282 299 290 277 280
250 205 195 185 202 203 214 226 197 217 229 209 240 240 230 220 218 236 256 261 257 238 242 233 253 255 248 240 234 231 243 233 199 246 253 267 273 260 270 278 267 261 253
226 242 241 206 206 207 205 206 219 210 223 227 223 224 216 230 229 227 228 246 251 236 247 229 237 240 247 242 241 237 240 237 220 235 250 262 269 257 256 262 252 250 244
232 231 241 262 233 225 213 206 201 206 220 246 237 234 237 226 230 235 234 229 244 246 221 235 234 241 242 241 243 241 239 238 233 226 250 257 264 260 251 246 246 245 241
224 220 240 257 269 261 245 233 219 207 207 212 240 246 251 248 233 233 235 229 242 248 236 232 234 230 237 238 242 245 242 239 239 234 238 258 262 260 256 249 241 240 239
234 227 222 219 238 259 262 257 263 256 234 227 220 231 237 247 252 243 236 237 241 250 248 229 235 240 238 238 242 243 244 244 240 238 236 247 260 261 252 250 247 240 238
247 251 248 242 242 228 234 249 261 265 262 258 244 232 232 241 248 252 248 244 236 240 245 231 238 242 248 242 241 239 247 244 243 241 242 245 244 255 260 252 247 243 238
225 229 229 229 232 238 242 233 245 254 263 261 265 256 236 245 249 251 256 251 245 233 235 238 240 246 247 237 235 239 239 244 244 246 243 245 247 245 248 256 251 246 241
254 250 250 249 244 243 242 243 239 253 258 260 263 266 257 242 245 249 257 258 259 245 233 235 240 244 243 236 226 231 235 244 244 243 245 245 246 249 243 247 249 245 242
231 233 232 232 235 234 235 240 243 239 245 261 260 265 269 265 242 239 250 254 259 254 243 235 239 244 243 237 233 227 212 229 241 245 243 243 239 244 248 243 246 245 248
264 255 251 252 255 252 248 246 249 251 251 249 265 269 270 271 274 270 260 251 251 252 253 251 240 243 245 244 236 240 234 241 221 232 239 234 236 240 246 246 242 240 241
300 288 282 277 283 290 280 268 261 258 256 255 249 255 262 266 272 277 278 264 250 254 255 249 248 242 248 249 251 245 238 232 236 239 237 230 229 235 239 245 244 240 244
299 304 296 290 276 269 283 285 284 280 275 267 258 257 259 261 264 267 271 275 264 250 254 256 255 249 248 246 251 252 250 239 233 230 234 239 238 237 234 237 242 242 246